Weather in Sharlovo

Russia / Ulyanovsk Oblast     53°57′51″N   46°50′56″E
temp.,
°C
wind,
m/s
gust,
m/s
humid.,
%
clouds,
%
prec.,
mm/h
press.,
hPa
HPBL,
m
24 october, sun
sun2401:00+6sw4986100 1.8 1011508
04:00+4wsw410905 1.9 1011438
07:00+3wsw310895 0.0 1012362
10:00+4w410785 0.0 1013659
13:00+6w585871 0.0 10131288
16:00+5w4866100 0.0 10141429
19:00+5wsw3874100 0.0 1014874
22:00+3wsw389297 0.2 1014567
25 october, mon
mon2501:00+2w4993100 0.2 1014555
04:00+2wnw51096100 0.4 1014566
07:00+1nw41196100 0.7 1016583
10:000nnw61084100 1.1 1020881
13:000nnw61069100 0.1 10221049
16:00+1nnw585826 0.1 10241222
19:00−2nw3974100 0.0 1027255
22:00−3wnw268197 0.0 1028130
26 october, tue
tue2601:00−2w258288 0.0 1028140
04:00−3wsw38827 0.0 1028218
07:00−2wsw4127790 0.0 1027403
10:00+1wsw5136699 0.0 1026505
13:00+4wsw6115572 0.0 1025750
16:00+4wsw6125997 0.0 1024780
19:00+2wsw51470100 0.0 1024511
22:00+1wsw5146988 0.0 1024458
27 october, wed
wed2701:00+1wsw5147093 0.0 1024399
04:00+1wsw5156968 0.0 1024410
07:000wsw5157064 0.0 1023397
10:00+3wsw5156056 0.0 1023449
13:00+7wsw6144762 0.0 1022676
16:00+7sw614455 0.0 1020788
19:00+4sw615490 0.0 1020672
22:00+4sw6164810 0.0 1019681
28 october, thu
thu2801:00+3sw61549100 0.0 1018611
04:00+3wsw51356100 0.0 1018751
07:00+3wsw4117014 0.0 1018495
10:00+5wsw4116734 0.0 1019545
13:00+7w596597 0.0 10191059
16:00+7w5864100 0.0 10191096
19:00+6w5865100 0.0 10191045
22:00+5wsw4977100 0.0 10181019